Content
SEND FEEDBACK

Daily
Averages
Monthly
Summary
Canada

BANFF, ALBERTA


Home > North America > Canada > Alberta
Elevation: 4583 feet     Latitude: 51 11N     Longitude: 115 34W

WEATHER
 
SELECT A DAY
Number of Records: 132,007;   Date Range: 1/1/95 - 7/28/14
 
SHARE

PRINT THIS DATA

[ ← Previous Day ]
WEATHER ALMANAC - MAY 4, 2013
[ Next Day → ]
[ °C ]   °F
Weather ElementAverageHighLow
Temperature45.8 °F64.6 °F (6:00 pm)27 °F (6:00 am)
Dewpoint22.1 °F26.8 °F (9:00 am)14.9 °F (7:00 pm)
Humidity48.5 %90 % (6:00 am)15 % (6:00 pm)
Barometer30.35 in30.50 in (7:00 am)30.19 in (8:00 pm)
Wind Speed4.2 mph8.1 mph (1:00 pm)
Weather ElementAverage
Wind DirectionSW (226.1 °)

Weather ElementTotal
Precipitation---
Heating Degree Days19.2 (Base 65)
Averaged from 23 records on May 4, 2013
WEATHER CONDITIONS BREAKOUT
WIND DIRECTION BREAKOUT
WEATHER BY HOUR - MAY 4, 2013
[ °C ]   °F
Local TimeTemperatureDewpointHumidityBarometerVisibilityWind DirectionWind SpeedGust SpeedPrecipitationEventsConditions
1:00 AM31.8 °F25.5 °F78 %30.45 inNNE (30°)2.3 mph
2:00 AM31.1 °F26.2 °F82 %30.45 inNNW (340°)1.2 mph
3:00 AM28.8 °F25.0 °F86 %30.47 inSSE (150°)1.2 mph
4:00 AM27.5 °F24.6 °F89 %30.48 inWest (270°)1.2 mph
5:00 AM27.9 °F24.8 °F88 %30.49 inNorth (360°)2.3 mph
6:00 AM27.0 °F24.3 °F90 %30.49 inCalm
7:00 AM27.7 °F25.2 °F90 %30.50 inSW (220°)2.3 mph
8:00 AM34.0 °F26.1 °F73 %30.48 inSW (220°)5.8 mph
9:00 AM39.7 °F26.8 °F60 %30.46 inSW (220°)5.8 mph
10:00 AM45.3 °F25.7 °F46 %30.43 inSW (220°)5.8 mph
11:00 AM50.4 °F25.0 °F37 %30.41 inWSW (240°)4.6 mph
12:00 PM56.1 °F21.2 °F26 %30.37 inSW (230°)5.8 mph
1:00 PM58.3 °F20.3 °F23 %30.33 inSW (230°)8.1 mph
2:00 PM60.8 °F19.6 °F20 %30.30 inSW (230°)3.5 mph
3:00 PM61.5 °F19.8 °F20 %30.28 inSW (230°)5.8 mph
4:00 PM63.3 °F18.7 °F18 %30.26 inSSW (210°)6.9 mph
5:00 PM64.4 °F18.1 °F17 %30.24 inSW (230°)6.9 mph
6:00 PM64.6 °F15.3 °F15 %30.22 inSW (220°)6.9 mph
7:00 PM63.1 °F14.9 °F15 %30.20 inSW (230°)8.1 mph
8:00 PM57.7 °F17.2 °F21 %30.19 inWest (260°)3.5 mph
9:00 PM50.9 °F20.7 °F30 %30.20 inSW (220°)3.5 mph
10:00 PM42.4 °F21.0 °F43 %30.22 inNW (320°)2.3 mph
11:00 PM39.9 °F22.1 °F49 %30.22 inNW (320°)2.3 mph
Hourly data recorded from CWZG, located miles away from Banff, Alberta







STORIES FROM OUR PARTNERS